Regional Weather Roundup
Issued by NWS

Home | Current Version | Previous Version | Text Only | Print | Product List | Glossary Off
Versions: 1 2 3 4 5 6 7 8 9 10 11 12 13 14 15 16 17 18 19 20 21 22 23 24 25 26 27 28 29 30 31 32 33 34 35 36 37 38 39 40 41 42 43 44 45 46 47 48 49 50

000
ASUS43 KFSD 300002
RWRSD

WEATHER ROUNDUP FOR SOUTH DAKOTA
NATIONAL WEATHER SERVICE SIOUX FALLS SD
700 PM CDT MON JUN 29 2015

NOTE: "FAIR" INDICATES FEW OR NO CLOUDS BELOW 12,000 FEET WITH NO
SIGNIFICANT WEATHER AND/OR OBSTRUCTIONS TO VISIBILITY.


SDZ001>005-009-010-012>017-300100-
NORTHWEST AND NORTH CENTRAL SOUTH DAKOTA

CITY           SKY/WX    TMP DP  RH WIND       PRES   REMARKS
BUFFALO          N/A     92  56  29 W8        29.93F
FAITH            N/A     91  59  33 CALM      29.97F
MOBRIDGE       MOSUNNY   92  60  34 NE5       29.90F
$$

SDZ012>016-024>037-041>051-057-063-072>074-300100-
SOUTHWEST AND SOUTH CENTRAL SOUTH DAKOTA

CITY           SKY/WX    TMP DP  RH WIND       PRES   REMARKS
RAPID CTY ARPT SUNNY     85  61  44 S5        30.05S
PIERRE         SUNNY     88  60  38 NW10      29.91F
CUSTER         MOSUNNY   70  57  63 S5        30.23F
ELLSWORTH AFB  SUNNY     87  53  30 SW3       30.04F
PHILIP         SUNNY     92  61  35 NW3       29.97S
PINE RIDGE     SUNNY     88  54  31 NE5       30.06F
WINNER         FAIR      91  51  25 NW9       29.96S
$$

SDZ004>011-016>023-039-040-300100-
NORTHEAST SOUTH DAKOTA

CITY           SKY/WX    TMP DP  RH WIND       PRES   REMARKS
ABERDEEN       MOSUNNY   86  63  45 NE9       29.88S HAZE
WATERTOWN      SUNNY     80  65  59 N6        29.89F
BROOKINGS      SUNNY     81  63  54 NW6       29.90F
SISSETON         N/A     78  63  59 N13       29.86S
$$

SDZ017-020-022-023-036>040-048>070-300100-
SOUTHEAST SOUTH DAKOTA

CITY           SKY/WX    TMP DP  RH WIND       PRES   REMARKS
SIOUX FALLS    SUNNY     81  62  52 W5        29.89F
HURON          MOSUNNY   83  67  58 NW5       29.88F
MITCHELL       SUNNY     85  62  46 CALM      29.90F
YANKTON        SUNNY     82  61  47 W3        29.89F
$$

ABBREVIATIONS USED IN REMARKS
   TC - TEMPERATURE IN CELSIUS
  WCI - WIND CHILL INDEX
   HX - HEAT INDEX
  VSB - VISIBILITY




USA.gov is the U.S. government's official web portal to all federal, state and local government web resources and services.